�������l�o���
Date,Time,MP-1(��Sv/h),MP-2(��Sv/h),MP-3(��Sv/h),MP-4(��Sv/h),MP-5(��Sv/h),MP-6(��Sv/h),MP-7(��Sv/h),MP-8(��Sv/h),����,����(m/s),���J
2015/01/31,00:00,1.425,2.322,2.462,2.430,2.337,0.887,1.500,1.813,�k��,7.1,��
2015/01/31,00:10,1.423,2.325,2.462,2.433,2.342,0.885,1.503,1.813,�k��,6.9,��
2015/01/31,00:20,1.425,2.323,2.458,2.432,2.342,0.888,1.503,1.817,�k��,5.2,��
2015/01/31,00:30,1.425,2.328,2.463,2.435,2.345,0.888,1.503,1.815,�k��,5.3,��
2015/01/31,00:40,1.425,2.328,2.458,2.438,2.343,0.887,1.503,1.815,�k��,6.0,��
2015/01/31,00:50,1.423,2.330,2.463,2.437,2.348,0.885,1.505,1.820,�k��,6.0,��
2015/01/31,01:00,1.423,2.335,2.463,2.438,2.342,0.885,1.508,1.820,�k�k��,6.1,��
2015/01/31,01:10,1.423,2.335,2.462,2.443,2.342,0.887,1.510,1.820,�k�k��,5.5,��
2015/01/31,01:20,1.428,2.335,2.463,2.443,2.348,0.888,1.510,1.822,�k�k��,5.8,��
2015/01/31,01:30,1.425,2.337,2.462,2.445,2.353,0.887,1.512,1.820,�k�k��,5.1,��
2015/01/31,01:40,1.428,2.338,2.462,2.445,2.348,0.888,1.512,1.820,�k�k��,7.9,��
2015/01/31,01:50,1.428,2.338,2.465,2.445,2.350,0.888,1.512,1.822,�k�k��,6.3,��
2015/01/31,02:00,1.427,2.338,2.463,2.450,2.350,0.888,1.513,1.823,�k�k��,6.0,��
2015/01/31,02:10,1.430,2.340,2.465,2.450,2.353,0.888,1.512,1.823,�k�k��,5.5,��
2015/01/31,02:20,1.432,2.342,2.467,2.455,2.353,0.887,1.515,1.823,�k�k��,6.0,��
2015/01/31,02:30,1.433,2.345,2.467,2.457,2.352,0.892,1.515,1.822,�k,5.8,��
2015/01/31,02:40,1.432,2.342,2.465,2.457,2.352,0.890,1.517,1.825,�k,5.5,��
2015/01/31,02:50,1.430,2.343,2.467,2.458,2.355,0.890,1.517,1.827,�k,5.3,��
2015/01/31,03:00,1.432,2.343,2.467,2.460,2.355,0.890,1.520,1.827,�k�k��,5.4,��
2015/01/31,03:10,1.433,2.347,2.468,2.463,2.357,0.890,1.518,1.830,�k,3.6,��
2015/01/31,03:20,1.435,2.347,2.470,2.460,2.355,0.888,1.520,1.828,�k,3.8,��
2015/01/31,03:30,1.435,2.352,2.467,2.462,2.358,0.892,1.522,1.830,�k�k��,4.9,��
2015/01/31,03:40,1.442,2.348,2.472,2.467,2.358,0.893,1.525,1.828,�k�k��,4.7,��
2015/01/31,03:50,1.440,2.350,2.470,2.468,2.358,0.893,1.523,1.832,�k��,5.6,��
2015/01/31,04:00,1.443,2.352,2.473,2.470,2.360,0.893,1.525,1.830,�k�k��,5.1,��
2015/01/31,04:10,1.443,2.352,2.472,2.472,2.362,0.895,1.525,1.833,�k�k��,4.9,��
2015/01/31,04:20,1.450,2.355,2.475,2.472,2.362,0.895,1.523,1.833,�k�k��,3.3,��
2015/01/31,04:30,1.448,2.352,2.477,2.472,2.360,0.892,1.523,1.828,�k��,2.4,��
2015/01/31,04:40,1.447,2.355,2.473,2.473,2.365,0.893,1.525,1.832,�k�k��,2.3,��
2015/01/31,04:50,1.448,2.355,2.475,2.473,2.362,0.893,1.525,1.830,�k�k��,2.6,��
2015/01/31,05:00,1.447,2.357,2.475,2.477,2.362,0.895,1.527,1.832,�k�k��,2.9,��
2015/01/31,05:10,1.448,2.358,2.477,2.478,2.362,0.893,1.528,1.833,�k�k��,3.0,��
2015/01/31,05:20,1.450,2.362,2.480,2.478,2.365,0.895,1.527,1.832,�k��,3.6,��
2015/01/31,05:30,1.452,2.362,2.477,2.480,2.363,0.893,1.528,1.835,�k�k��,2.8,��
2015/01/31,05:40,1.453,2.358,2.478,2.482,2.367,0.895,1.527,1.835,�k��,3.2,��
2015/01/31,05:50,1.455,2.360,2.482,2.485,2.367,0.893,1.528,1.835,�k�k��,3.2,��
2015/01/31,06:00,1.453,2.360,2.478,2.480,2.365,0.895,1.528,1.835,�k��,4.5,��
2015/01/31,06:10,1.452,2.363,2.480,2.480,2.367,0.895,1.528,1.837,���k��,4.6,��
2015/01/31,06:20,1.450,2.363,2.482,2.487,2.367,0.895,1.528,1.835,��,8.5,��
2015/01/31,06:30,1.450,2.367,2.480,2.480,2.367,0.895,1.530,1.838,��,8.8,��
2015/01/31,06:40,1.448,2.363,2.478,2.477,2.365,0.895,1.530,1.835,��,12.9,��
2015/01/31,06:50,1.447,2.363,2.475,2.472,2.370,0.897,1.530,1.838,��,10.7,��
2015/01/31,07:00,1.447,2.365,2.473,2.470,2.367,0.898,1.533,1.837,��,11.6,��
2015/01/31,07:10,1.447,2.363,2.473,2.470,2.367,0.898,1.530,1.840,��,9.3,��
2015/01/31,07:20,1.447,2.365,2.473,2.472,2.368,0.897,1.530,1.842,���k��,9.1,��
2015/01/31,07:30,1.448,2.363,2.472,2.477,2.370,0.895,1.532,1.840,���k��,4.7,��
2015/01/31,07:40,1.450,2.362,2.477,2.478,2.368,0.897,1.537,1.840,���k��,5.7,��
2015/01/31,07:50,1.450,2.365,2.478,2.478,2.372,0.897,1.532,1.838,�k��,4.7,��
2015/01/31,08:00,1.447,2.368,2.477,2.482,2.372,0.897,1.537,1.842,���k��,4.9,��
2015/01/31,08:10,1.450,2.372,2.478,2.482,2.370,0.897,1.537,1.842,�k��,3.9,��
2015/01/31,08:20,1.450,2.367,2.477,2.482,2.370,0.897,1.537,1.843,���k��,3.8,��
2015/01/31,08:30,1.453,2.370,2.478,2.483,2.372,0.897,1.535,1.843,���쐼,4.1,��
2015/01/31,08:40,1.452,2.375,2.478,2.488,2.368,0.900,1.537,1.842,���쐼,4.5,��
2015/01/31,08:50,1.457,2.375,2.482,2.490,2.373,0.900,1.537,1.845,���쐼,4.4,��
2015/01/31,09:00,1.458,2.377,2.483,2.492,2.373,0.898,1.540,1.847,�쐼,3.5,��
2015/01/31,09:10,1.458,2.380,2.485,2.490,2.377,0.900,1.538,1.848,��,6.7,��
2015/01/31,09:20,1.460,2.382,2.485,2.495,2.382,0.898,1.538,1.850,���쐼,8.0,��
2015/01/31,09:30,1.462,2.390,2.487,2.497,2.385,0.900,1.542,1.852,��,12.4,��
2015/01/31,09:40,1.462,2.398,2.490,2.503,2.385,0.902,1.542,1.852,��,9.6,��
2015/01/31,09:50,1.462,2.398,2.488,2.503,2.388,0.902,1.547,1.853,���쐼,7.8,��
2015/01/31,10:00,1.458,2.405,2.492,2.505,2.388,0.902,1.545,1.853,��,6.8,��
2015/01/31,10:10,1.463,2.412,2.493,2.512,2.392,0.902,1.545,1.853,��,2.6,��
2015/01/31,10:20,1.468,2.417,2.497,2.517,2.397,0.902,1.547,1.855,�k�k��,5.3,��
2015/01/31,10:30,1.470,2.420,2.502,2.518,2.402,0.907,1.547,1.858,�k�k��,2.7,��
2015/01/31,10:40,1.470,2.428,2.500,2.522,2.400,0.905,1.548,1.860,�k�k��,6.1,��
2015/01/31,10:50,1.472,2.437,2.505,2.523,2.405,0.905,1.552,1.862,���k��,4.3,��
2015/01/31,11:00,1.473,2.440,2.508,2.525,2.410,0.905,1.553,1.863,�k�k��,8.2,��
2015/01/31,11:10,1.477,2.448,2.510,2.533,2.417,0.905,1.555,1.863,�k��,8.8,��
2015/01/31,11:20,1.478,2.455,2.512,2.535,2.420,0.907,1.558,1.867,�k��,6.3,��
2015/01/31,11:30,1.482,2.460,2.517,2.542,2.427,0.907,1.558,1.870,�k��,9.9,��
2015/01/31,11:40,1.480,2.465,2.520,2.538,2.432,0.907,1.562,1.870,�k�k��,8.5,��
2015/01/31,11:50,1.483,2.475,2.528,2.545,2.438,0.912,1.565,1.872,�k�k��,8.8,��
2015/01/31,12:00,1.485,2.483,2.535,2.553,2.442,0.912,1.565,1.877,�k��,6.9,��
2015/01/31,12:10,1.488,2.492,2.537,2.555,2.448,0.912,1.568,1.877,���k��,7.7,��
2015/01/31,12:20,1.493,2.503,2.547,2.552,2.455,0.912,1.570,1.882,���k��,7.1,��
2015/01/31,12:30,1.493,2.510,2.548,2.557,2.457,0.912,1.572,1.878,��,6.3,��
2015/01/31,12:40,1.495,2.520,2.555,2.562,2.463,0.918,1.572,1.882,��,6.0,��
2015/01/31,12:50,1.493,2.528,2.558,2.568,2.468,0.917,1.577,1.887,���k��,6.1,��
2015/01/31,13:00,1.498,2.538,2.563,2.572,2.478,0.915,1.578,1.887,���k��,7.7,��
2015/01/31,13:10,1.500,2.545,2.573,2.577,2.487,0.917,1.582,1.892,�k��,6.8,��
2015/01/31,13:20,1.502,2.558,2.575,2.578,2.497,0.918,1.583,1.897,���k��,7.2,��
2015/01/31,13:30,1.503,2.560,2.580,2.582,2.502,0.918,1.585,1.897,�k��,7.7,��
2015/01/31,13:40,1.503,2.567,2.587,2.587,2.510,0.918,1.585,1.900,���k��,7.2,��
2015/01/31,13:50,1.505,2.575,2.593,2.592,2.518,0.922,1.588,1.905,�k��,6.5,��
2015/01/31,14:00,1.507,2.585,2.595,2.598,2.525,0.923,1.593,1.905,���k��,7.2,��
2015/01/31,14:10,1.510,2.590,2.602,2.603,2.533,0.923,1.595,1.903,���k��,5.4,��
2015/01/31,14:20,1.510,2.600,2.613,2.608,2.543,0.923,1.598,1.907,�k��,3.9,��
2015/01/31,14:30,1.515,2.605,2.615,2.612,2.552,0.927,1.598,1.913,�k�k��,5.4,��
2015/01/31,14:40,1.517,2.610,2.625,2.615,2.553,0.928,1.602,1.915,�k��,3.7,��
2015/01/31,14:50,1.520,2.618,2.633,2.622,2.558,0.928,1.603,1.918,�k��,5.0,��
2015/01/31,15:00,1.518,2.620,2.640,2.622,2.565,0.930,1.607,1.920,���k��,4.3,��
2015/01/31,15:10,1.523,2.625,2.643,2.628,2.570,0.932,1.608,1.920,���k��,4.4,��
2015/01/31,15:20,1.530,2.632,2.652,2.640,2.575,0.933,1.613,1.922,�k��,2.3,��
2015/01/31,15:30,1.530,2.635,2.658,2.643,2.580,0.933,1.617,1.925,��,3.0,��
2015/01/31,15:40,1.535,2.645,2.663,2.643,2.593,0.933,1.615,1.930,���k��,3.8,��
2015/01/31,15:50,1.537,2.648,2.670,2.648,2.598,0.935,1.620,1.933,���k��,5.6,��
2015/01/31,16:00,1.538,2.653,2.678,2.655,2.603,0.938,1.622,1.933,���k��,5.5,��
2015/01/31,16:10,1.540,2.657,2.683,2.660,2.610,0.938,1.622,1.933,���k��,5.6,��
2015/01/31,16:20,1.540,2.662,2.688,2.660,2.617,0.940,1.625,1.933,���k��,5.4,��
2015/01/31,16:30,1.545,2.668,2.692,2.667,2.620,0.940,1.625,1.938,���k��,4.3,��
2015/01/31,16:40,1.545,2.672,2.692,2.670,2.627,0.942,1.628,1.940,���k��,4.9,��
2015/01/31,16:50,1.550,2.673,2.702,2.673,2.633,0.943,1.627,1.943,���k��,5.5,��
2015/01/31,17:00,1.552,2.675,2.700,2.675,2.633,0.945,1.628,1.940,���k��,7.3,��
2015/01/31,17:10,1.553,2.682,2.707,2.677,2.635,0.942,1.630,1.942,���k��,7.1,��
2015/01/31,17:20,1.553,2.685,2.710,2.678,2.635,0.942,1.632,1.945,���k��,7.9,��
2015/01/31,17:30,1.555,2.690,2.713,2.680,2.640,0.947,1.630,1.945,���k��,9.5,��
2015/01/31,17:40,1.555,2.690,2.718,2.685,2.647,0.948,1.632,1.948,���k��,9.4,��
2015/01/31,17:50,1.557,2.697,2.723,2.683,2.648,0.950,1.633,1.948,���k��,8.6,��
2015/01/31,18:00,1.558,2.693,2.727,2.687,2.647,0.950,1.633,1.948,���k��,10.6,��
2015/01/31,18:10,1.558,2.700,2.728,2.687,2.652,0.948,1.635,1.950,���k��,7.4,��
2015/01/31,18:20,1.558,2.698,2.730,2.688,2.652,0.948,1.633,1.950,�k��,8.1,��
2015/01/31,18:30,1.560,2.702,2.730,2.697,2.653,0.943,1.633,1.950,���k��,5.3,��
2015/01/31,18:40,1.562,2.705,2.732,2.700,2.653,0.948,1.637,1.952,���k��,6.6,��
2015/01/31,18:50,1.562,2.705,2.733,2.700,2.653,0.950,1.635,1.952,�k��,6.0,��
2015/01/31,19:00,1.562,2.708,2.737,2.705,2.658,0.948,1.637,1.952,�k��,7.3,��
2015/01/31,19:10,1.565,2.708,2.738,2.705,2.658,0.950,1.638,1.952,���k��,8.1,��
2015/01/31,19:20,1.570,2.713,2.738,2.703,2.660,0.950,1.638,1.953,�k��,9.3,��
2015/01/31,19:30,1.567,2.713,2.742,2.705,2.662,0.948,1.637,1.957,���k��,7.1,��
2015/01/31,19:40,1.567,2.717,2.738,2.710,2.662,0.950,1.640,1.953,���k��,10.4,��
2015/01/31,19:50,1.570,2.717,2.742,2.705,2.663,0.950,1.638,1.953,���k��,8.4,��
2015/01/31,20:00,1.570,2.715,2.745,2.713,2.665,0.950,1.643,1.955,���k��,8.3,��
2015/01/31,20:10,1.573,2.720,2.743,2.715,2.668,0.953,1.642,1.955,���k��,7.7,��
2015/01/31,20:20,1.570,2.722,2.745,2.717,2.668,0.948,1.642,1.955,���k��,8.3,��
2015/01/31,20:30,1.572,2.723,2.745,2.717,2.665,0.950,1.643,1.958,���k��,8.6,��
2015/01/31,20:40,1.575,2.723,2.747,2.713,2.667,0.952,1.642,1.955,���k��,4.2,��
2015/01/31,20:50,1.573,2.723,2.750,2.718,2.667,0.950,1.642,1.957,�k��,6.5,��
2015/01/31,21:00,1.572,2.725,2.752,2.718,2.672,0.950,1.645,1.962,���k��,7.2,��
2015/01/31,21:10,1.572,2.727,2.752,2.717,2.672,0.953,1.647,1.960,���k��,9.3,��
2015/01/31,21:20,1.575,2.727,2.753,2.718,2.672,0.952,1.645,1.960,���k��,9.6,��
2015/01/31,21:30,1.575,2.730,2.757,2.720,2.672,0.953,1.647,1.962,���k��,10.5,��
2015/01/31,21:40,1.577,2.730,2.755,2.720,2.678,0.953,1.645,1.960,���k��,13.0,��
2015/01/31,21:50,1.577,2.730,2.757,2.722,2.680,0.952,1.645,1.960,���k��,10.8,��
2015/01/31,22:00,1.578,2.728,2.753,2.727,2.677,0.953,1.647,1.963,���k��,10.8,��
2015/01/31,22:10,1.577,2.728,2.755,2.723,2.677,0.953,1.648,1.962,���k��,11.6,��
2015/01/31,22:20,1.577,2.730,2.758,2.732,2.675,0.957,1.647,1.962,���k��,10.7,��
2015/01/31,22:30,1.580,2.733,2.765,2.730,2.680,0.955,1.647,1.963,���k��,11.6,��
2015/01/31,22:40,1.578,2.737,2.762,2.728,2.682,0.953,1.647,1.963,���k��,10.5,��
2015/01/31,22:50,1.582,2.738,2.762,2.732,2.682,0.955,1.648,1.962,���k��,10.8,��
2015/01/31,23:00,1.583,2.735,2.758,2.733,2.683,0.955,1.650,1.962,���k��,8.8,��
2015/01/31,23:10,1.582,2.735,2.763,2.732,2.688,0.953,1.650,1.965,���k��,10.2,��
2015/01/31,23:20,1.583,2.737,2.765,2.733,2.688,0.957,1.650,1.963,���k��,8.5,��
2015/01/31,23:30,1.582,2.738,2.763,2.735,2.687,0.953,1.648,1.963,���k��,9.6,��
2015/01/31,23:40,1.582,2.738,2.768,2.737,2.687,0.955,1.648,1.962,���k��,7.8,��
2015/01/31,23:50,1.587,2.740,2.768,2.737,2.687,0.953,1.647,1.965,�k��,8.8,��
